EW4785 Weather Reports


time (UTC)temp
C
wind
direction
speed
KPH
gust
KPH
rain 1hr
cm
rain 24hr
cm
rain mn
cm
humidity
%
barometer
mb
20260510190012 27 157 0.0 6.4 0.00 0.00 0.00 34 1014.7
20260510184505 27 298 1.6 11.3 0.00 0.00 0.00 33 1014.8
20260510183004 27 274 1.6 6.4 0.00 0.00 0.00 35 1014.8
20260510181503 27 190 1.6 11.3 0.00 0.00 0.00 35 1015.0
20260510180001 27 184 3.2 8.0 0.00 0.00 0.00 35 1015.2
20260510174501 27 274 4.8 9.7 0.00 0.00 0.00 33 1015.2
20260510173103 27 101 1.6 3.2 0.00 0.00 0.00 35 1015.3
20260510171557 27 159 0.0 6.4 0.00 0.00 0.00 39 1015.6
20260510170057 27 207 0.0 6.4 0.00 0.00 0.00 39 1015.6
20260510164601 26 275 0.0 6.4 0.00 0.00 0.00 36 1015.7
20260510163054 26 178 0.0 8.0 0.00 0.00 0.00 40 1015.7
20260510161553 26 303 0.0 4.8 0.00 0.00 0.00 39 1015.7
20260510160047 26 59 1.6 6.4 0.00 0.00 0.00 43 1015.9
20260510154552 26 232 3.2 11.3 0.00 0.00 0.00 45 1015.8
20260510153044 25 103 1.6 4.8 0.00 0.00 0.00 48 1016.0
20260510151548 25 132 1.6 6.4 0.00 0.00 0.00 51 1016.1
20260510150046 24 236 0.0 4.8 0.00 0.00 0.00 50 1016.2
20260510144546 23 309 3.2 14.5 0.00 0.00 0.00 49 1016.1
20260510143030 23 186 0.0 4.8 0.00 0.00 0.00 53 1016.0
20260510141526 22 76 1.6 9.7 0.00 0.00 0.00 60 1016.0
20260510140022 21 71 0.0 4.8 0.00 0.00 0.00 72 1016.1
20260510134518 19 298 0.0 3.2 0.00 0.00 0.00 77 1016.1
20260510133012 18 324 0.0 1.6 0.00 0.00 0.00 86 1016.0
20260510131509 17 247 0.0 4.8 0.00 0.00 0.00 92 1016.0
20260510130006 16 140 0.0 0.0 0.00 0.00 0.00 96 1015.9
20260510124505 16 184 0.0 0.0 0.00 0.00 0.00 97 1015.8
20260510123004 15 184 0.0 1.6 0.00 0.00 0.00 98 1015.5
20260510121609 15 184 0.0 1.6 0.00 0.00 0.00 98 1015.2
20260510120059 13 184 0.0 0.0 0.00 0.00 0.00 97 1014.9
20260510114616 13 184 0.0 0.0 0.00 0.00 0.00 97 1014.9
20260510113100 13 184 0.0 1.6 0.00 0.00 0.00 98 1014.7
20260510111554 12 184 0.0 0.0 0.00 0.00 0.00 96 1014.5
20260510110052 12 184 0.0 0.0 0.00 0.00 0.00 96 1014.1
20260510104557 13 184 0.0 0.0 0.00 0.00 0.00 96 1014.0
20260510103047 13 184 0.0 0.0 0.00 0.00 0.00 97 1013.7
20260510101547 13 184 0.0 1.6 0.00 0.00 0.00 97 1013.5
20260510100057 12 184 0.0 0.0 0.00 0.00 0.00 96 1013.3
20260510094551 13 184 0.0 1.6 0.00 0.00 0.00 95 1013.1
20260510093039 13 184 0.0 0.0 0.00 0.00 0.00 96 1013.0
20260510091538 13 184 0.0 0.0 0.00 0.00 0.00 96 1012.7
20260510090036 13 184 0.0 0.0 0.00 0.00 0.00 95 1012.7
20260510084536 13 184 0.0 0.0 0.00 0.00 0.00 95 1012.6
20260510083041 13 184 0.0 0.0 0.00 0.00 0.00 95 1012.6
20260510081534 13 184 0.0 0.0 0.00 0.00 0.00 94 1012.4
20260510080036 14 184 0.0 0.0 0.00 0.00 0.00 94 1012.3
20260510074536 15 184 0.0 0.0 0.00 0.00 0.00 94 1012.3
20260510073027 15 184 0.0 0.0 0.00 0.00 0.00 95 1012.4
20260510071528 15 184 0.0 0.0 0.00 0.00 0.00 95 1012.3
20260510070032 15 184 0.0 1.6 0.00 0.00 0.00 94 1012.3
20260510064525 15 184 0.0 0.0 0.00 0.00 0.00 93 1012.1
20260510063024 15 184 0.0 0.0 0.00 0.00 0.00 95 1012.2
20260510061527 15 184 0.0 0.0 0.00 0.00 0.00 95 1012.2
20260510060023 15 184 0.0 0.0 0.00 0.00 0.00 94 1012.1
20260510054521 15 184 0.0 0.0 0.00 0.00 0.00 93 1012.3
20260510053017 15 184 0.0 0.0 0.00 0.00 0.00 92 1012.6
20260510051517 15 184 0.0 0.0 0.00 0.00 0.00 93 1012.6
20260510050016 15 184 0.0 0.0 0.00 0.00 0.00 93 1012.7
20260510044515 15 184 0.0 0.0 0.00 0.00 0.00 92 1012.9
20260510043013 16 184 0.0 1.6 0.00 0.00 0.00 91 1012.7
20260510041512 16 184 0.0 3.2 0.00 0.00 0.00 91 1012.9
20260510040009 16 184 0.0 1.6 0.00 0.00 0.00 90 1012.8
20260510034509 16 184 0.0 3.2 0.00 0.00 0.00 90 1012.8
20260510033007 16 184 0.0 1.6 0.00 0.00 0.00 90 1012.6
20260510031507 16 184 0.0 0.0 0.00 0.00 0.00 90 1012.6
20260510030007 16 184 0.0 0.0 0.00 0.00 0.00 89 1012.6
20260510024512 16 184 0.0 1.6 0.00 0.00 0.00 89 1012.5
20260510023005 17 184 0.0 1.6 0.00 0.00 0.00 88 1012.4
20260510021506 17 184 0.0 1.6 0.00 0.00 0.00 87 1012.3
20260510020007 17 184 0.0 1.6 0.00 0.00 0.00 85 1012.1
20260510014504 17 184 0.0 1.6 0.00 0.00 0.00 85 1012.2
20260510013002 17 184 0.0 3.2 0.00 0.00 0.00 84 1011.7
20260510011503 18 184 0.0 3.2 0.00 0.00 0.00 83 1011.4
20260510010002 18 184 0.0 3.2 0.00 0.00 0.00 82 1011.1
20260510004501 18 184 0.0 3.2 0.00 0.00 0.00 81 1010.7
20260510003002 18 184 0.0 6.4 0.00 0.00 0.00 80 1010.8
20260510001600 19 176 0.0 3.2 0.00 0.00 0.00 79 1010.6
20260510000101 20 182 1.6 6.4 0.00 0.00 0.00 77 1010.6
20260509234611 20 177 3.2 6.4 0.00 0.00 0.00 76 1010.5
20260509233059 20 178 1.6 8.0 0.00 0.00 0.00 75 1010.5
20260509231558 21 170 1.6 8.0 0.00 0.00 0.00 74 1010.2
20260509230159 21 173 3.2 6.4 0.00 0.00 0.00 74 1010.3
20260509224557 21 129 1.6 9.7 0.00 0.00 0.00 73 1010.0
20260509223100 22 180 1.6 12.9 0.00 0.00 0.00 72 1009.9
20260509221555 22 186 1.6 12.9 0.00 0.00 0.00 73 1010.0
20260509214554 22 142 1.6 8.0 0.00 0.00 0.00 70 1009.9
20260509213055 22 188 3.2 12.9 0.00 0.00 0.00 70 1009.9
20260509211554 22 130 3.2 12.9 0.00 0.00 0.00 71 1010.0
20260509210058 22 161 4.8 12.9 0.00 0.00 0.00 70 1010.0
20260509204558 22 174 3.2 14.5 0.00 0.00 0.00 70 1009.7
20260509203046 21 241 3.2 8.0 0.00 0.00 0.00 71 1010.1
20260509201546 21 171 4.8 12.9 0.00 0.00 0.00 73 1010.2
20260509200044 21 164 1.6 8.0 0.00 0.00 0.00 73 1010.3
20260509194544 21 281 3.2 11.3 0.00 0.00 0.00 73 1010.3
20260509193044 21 140 3.2 12.9 0.00 0.00 0.00 72 1010.5
20260509191538 20 251 3.2 12.9 0.00 0.00 0.00 74 1010.8